User: anonymous   Login
Location: Meetinghouse Hill
(42.7686°N, 71.7752°W)
Time: 01:09:29
(UTC-04:00)
Language:

Iridium 34 - Orbit

View from above orbital plane
View from above orbital plane
View from above satellite
View from above satellite

Ground track
Ground track

The orbit data is extracted from the following two-line orbital elements,

1 24969U 97056E   14298.11392266  .00000799  00000-0  27819-3 0  9963
2 24969 086.3990 002.6172 0002280 108.7645 251.3798 14.34225338894065
Epoch (UTC): 25 October 2014 02:44:02
Eccentricity: 0.0002280
inclination: 86.3990°
perigee height: 776 km
apogee height: 779 km
right ascension of ascending node: 2.6172°
argument of perigee: 108.7645°
revolutions per day: 14.34225338
mean anomaly at epoch: 251.3798°
orbit number at epoch: 89406

The dashed part of the orbit path shows where the satellite is in the earth's shadow,  

DLR